[[{"header":{"parameterUnit":"m.s-1","parameterCategory":1,"la1":30.2991,"la2":30.254,"lo1":-89.0895,"lo2":-89.0444,"dy":0.0017,"dx":0.0017,"nx":28,"ny":28,"refTime":"2024-12-23T03:00:00:Z","depth":0,"parameterNumber":2,"parameterNumberName":"U-component_of_WINDS"},"data":[0,0,0,0,0,0,0,0,0,0,0,0,0,0,0,0,0,0,0,0,0,0,0,0,0,0,0,0,0,0,0,0,0,0,0,0,0,0,0,0,0,0,0,0,0,0,0,0,0,0,0,0,0,0,0,0,0,0,-3.0172,-3.0173,0,-3.0236,-3.0237,-3.0238,-3.0128,-3.0124,-3.0121,-3.0117,-3.0186,-3.0191,-3.0196,0,0,0,0,0,0,0,0,0,0,0,0,0,-2.9958,-2.9963,-3.0172,-3.0173,-3.0174,-3.0236,-3.0237,-3.0238,-3.0129,-3.0124,-3.012,-3.0115,-3.0184,-3.019,-3.0196,0,0,0,0,0,0,0,0,0,0,0,0,0,-3.004,-2.9964,-3.0172,-3.0127,-3.0123,-3.0236,-3.0237,-3.0238,-3.013,-3.0124,-3.0119,-3.0113,-3.0182,-3.019,-3.0197,-3.0358,0,0,-3.0222,-3.0225,0,0,0,0,0,0,0,0,-3.0035,-3.0048,-3.0133,-3.013,-3.0127,-3.0168,-3.0186,-3.0278,-3.0131,-3.0128,-3.0117,-3.0111,-3.0185,-3.0192,-3.0216,-3.0361,-3.0364,-3.0222,-3.0227,-3.0231,-3.0233,0,0,0,0,0,0,0,-3.003,-3.0044,-3.0198,-3.0134,-3.013,-3.0104,-3.011,-3.0203,-3.0187,-3.0127,-3.012,-3.0128,-3.0182,-3.0209,-3.0217,-3.0365,-3.0222,-3.0229,-3.0234,-3.0237,-3.0645,-3.0651,0,0,0,0,0,0,-3.0029,-3.004,-3.0196,-3.02,-3.0066,-3.0113,-3.0119,-3.0161,-3.0185,-3.0184,-3.0133,-3.0123,-3.0198,-3.0208,-3.0219,-3.0409,-3.023,-3.0238,-3.0242,-3.0639,-3.0646,-3.0653,0,0,0,0,0,0,-3.0025,-3.0044,-3.0193,-3.0118,-3.0135,-3.0122,-3.017,-3.0165,-3.0192,-3.019,-3.0186,-3.0164,-3.0194,-3.0208,-3.0324,-3.041,-3.0241,-3.0249,-3.0632,-3.0641,-3.065,-3.079,0,0,0,0,0,0,-3.0019,-3.0043,-3.0104,-3.012,-3.0139,-3.0297,-3.0176,-3.017,-3.0205,-3.0193,-3.0217,-3.0216,-3.0191,-3.0313,-3.0332,-3.0418,-3.0255,-3.0624,-3.0636,-3.0647,-3.0778,-3.0803,-3.0824,0,0,0,0,0,-3.0012,-3.0141,-3.0107,-3.0127,-3.0214,-3.0302,-3.0313,-3.028,-3.0213,-3.0274,-3.0272,-3.0215,-3.0397,-3.0326,-3.0346,-3.0436,-3.0618,-3.0633,-3.0646,-3.0767,-3.0798,-3.0824,0,0,0,0,0,0,-3.0137,-3.0143,-3.0105,-3.0243,-3.0273,-3.0283,-3.0359,-3.0314,-3.0364,-3.035,-3.0308,-3.0315,-3.044,-3.0449,-3.0369,-3.0592,-3.0496,-3.0515,-3.0582,-3.0611,-3.0634,-3.0629,-3.0261,0,0,0,0,0,-3.018,-3.025,-3.0252,-3.0374,-3.039,-3.0373,-3.0409,-3.0381,-3.0411,-3.0423,-3.043,-3.0461,-3.0525,-3.0568,-3.0627,-3.0778,-3.0782,-3.085,-3.0873,-3.0892,-3.0909,-3.099,-3.102,-3.0698,-3.0698,-3.0697,0,0,-3.0271,-3.0283,-3.033,-3.0399,-3.0418,-3.0492,-3.0384,-3.0467,-3.0521,-3.0436,-3.0546,-3.0552,-3.0584,-3.0718,-3.0778,-3.073,-3.0999,-3.0909,-3.0925,-3.0931,-3.1007,-3.1037,-3.1065,-3.0707,-3.0705,-3.0704,0,0,-3.0475,-3.049,-3.0593,-3.0615,-3.0645,-3.0633,-3.0658,-3.0675,-3.0675,-3.0785,-3.0722,-3.0787,-3.0898,-3.0923,-3.0951,-3.1163,-3.1113,-3.1183,-3.1306,-3.1385,-3.141,-3.1433,-3.1509,-3.1537,-3.12,-3.12,-3.1201,0,-3.0584,-3.0692,-3.0653,-3.074,-3.0772,-3.0697,-3.0801,-3.0824,-3.0873,-3.0898,-3.0843,-3.0981,-3.0997,-3.1136,-3.1188,-3.1213,-3.124,-3.1181,-3.141,-3.1432,-3.1452,-3.1524,-3.1553,-3.1209,-3.1208,-3.1207,-3.1206,0,-3.0825,-3.0901,-3.0981,-3.1029,-3.107,-3.1166,-3.1142,-3.1188,-3.1157,-3.115,-3.1262,-3.1279,-3.134,-3.1371,-3.1341,-3.1506,-3.1476,-3.1416,-3.1319,-3.1492,-3.1559,-3.1586,-3.1221,-3.1218,-3.1215,-3.1213,0,0,-3.1111,-3.1134,-3.1164,-3.1185,-3.1213,-3.1271,-3.1363,-3.1422,-3.1463,-3.1499,-3.1576,-3.1671,-3.1616,-3.1647,-3.162,-3.1689,-3.1857,-3.1621,-3.1621,-3.1665,-3.2041,-3.2086,-3.2119,-3.1823,-3.1828,-3.1832,-3.2038,0,-3.1313,-3.1471,-3.1438,-3.1593,-3.1663,-3.1592,-3.1672,-3.1699,-3.1695,-3.1754,-3.175,-3.1818,-3.174,-3.1758,-3.1824,-3.1823,-3.1932,-3.1807,-3.1895,-3.1899,-3.1891,-3.2154,-3.2202,-3.2395,-3.2064,-3.2069,-3.2072,0,-3.1571,-3.1615,-3.1778,-3.1794,-3.1822,-3.1895,-3.1945,-3.2002,-3.2031,-3.2023,-3.2058,-3.2017,-3.2109,-3.201,-3.2137,-3.2053,-3.2087,-3.2092,-3.2099,-3.2106,-3.1997,-3.2169,-3.2456,-3.2485,-3.2113,-3.2109,-3.2106,0,-3.1763,-3.1864,-3.1974,-3.1994,-3.2015,-3.2068,-3.2079,-3.2102,-3.2139,-3.2184,-3.2207,-3.2263,-3.2293,-3.2337,-3.2313,-3.2243,-3.2444,-3.2343,-3.2441,-3.2442,-3.2488,-3.2486,-3.2785,-3.2509,-3.2508,-3.2508,-3.2507,0,-3.1994,-3.2096,-3.206,-3.2128,-3.2241,-3.2202,-3.2315,-3.2318,-3.2338,-3.2406,-3.2348,-3.2413,-3.2376,-3.2438,-3.242,-3.2528,-3.2542,-3.2539,-3.2533,-3.2545,-3.2546,-3.2567,-3.2554,-3.2515,-3.2514,-3.2512,-3.2511,0,-3.2228,-3.2208,-3.2324,-3.2334,-3.2339,-3.2422,-3.243,-3.2494,-3.2485,-3.2572,-3.259,-3.2577,-3.2647,-3.2626,-3.2703,-3.269,-3.2827,-3.2804,-3.2818,-3.2812,-3.2912,-3.2903,-3.3236,-3.3278,-3.2975,-3.2977,-3.298,0,-3.2377,-3.2454,-3.2472,-3.2512,-3.2528,-3.2594,-3.2631,-3.2596,-3.2637,-3.2675,-3.2734,-3.2799,-3.2849,-3.2965,-3.2963,-3.3021,-3.2999,-3.3112,-3.3008,-3.3017,-3.3002,-3.2998,-3.3006,-3.3133,-3.3137,-3.314,-3.3142,0,-3.2643,-3.2629,-3.2684,-3.2737,-3.2782,-3.2822,-3.2857,-3.2894,-3.286,-3.291,-3.298,-3.3019,-3.3097,-3.3162,-3.3215,-3.3228,-3.3181,-3.3174,-3.32,-3.3214,-3.3219,-3.3218,-3.2875,-3.3167,-3.3165,-3.3163,-3.3162,-3.3161,-3.284,-3.2904,-3.2927,-3.2991,-3.3013,-3.3046,-3.3106,-3.3104,-3.3162,-3.3222,-3.3197,-3.3279,-3.3305,-3.3371,-3.339,-3.3454,-3.3411,-3.3448,-3.3458,-3.3468,-3.3481,-3.3208,-3.3463,-3.3463,-3.3462,-3.3461,-3.3461,0,-3.3103,-3.3114,-3.3173,-3.3222,-3.3272,-3.3221,-3.3257,-3.3303,-3.3375,-3.3402,-3.3453,-3.3534,-3.3597,-3.36,-3.3659,-3.3709,-3.3689,-3.3726,-3.3723,-3.3727,-3.3516,-3.3488,-3.3742,-3.3742,-3.3742,-3.3742,-3.3741,-3.3741,-3.3246,-3.3353,-3.3342,-3.346,-3.347,-3.3548,-3.3573,-3.3604,-3.3626,-3.3719,-3.377,-3.3771,-3.3789,-3.3849,-3.3905,-3.3904,-3.3929,-3.3975,-3.3966,-3.3769,-3.3741,-3.3715,-3.3688,-3.398,-3.398,-3.4171,-3.4173,-3.4174]},{"header":{"parameterUnit":"m.s-1","parameterCategory":1,"la1":30.2991,"la2":30.254,"lo1":-89.0895,"lo2":-89.0444,"dy":0.0017,"dx":0.0017,"nx":28,"ny":28,"refTime":"2024-12-23T03:00:00:Z","depth":0,"parameterNumber":3,"parameterNumberName":"V-component_of_WINDS"},"data":[0,0,0,0,0,0,0,0,0,0,0,0,0,0,0,0,0,0,0,0,0,0,0,0,0,0,0,0,0,0,0,0,0,0,0,0,0,0,0,0,0,0,0,0,0,0,0,0,0,0,0,0,0,0,0,0,0,0,-1.607,-1.607,0,-1.6117,-1.6117,-1.6118,-1.6144,-1.6144,-1.6144,-1.6144,-1.6191,-1.6192,-1.6193,0,0,0,0,0,0,0,0,0,0,0,0,0,-1.6,-1.6001,-1.607,-1.607,-1.6071,-1.6116,-1.6117,-1.6118,-1.6144,-1.6144,-1.6144,-1.6144,-1.6191,-1.6192,-1.6193,0,0,0,0,0,0,0,0,0,0,0,0,0,-1.6037,-1.6002,-1.607,-1.6089,-1.6092,-1.6116,-1.6117,-1.6118,-1.6144,-1.6144,-1.6144,-1.6144,-1.619,-1.6192,-1.6193,-1.6202,0,0,-1.6199,-1.62,0,0,0,0,0,0,0,0,-1.6035,-1.604,-1.6086,-1.6088,-1.6091,-1.6125,-1.611,-1.6146,-1.6144,-1.6124,-1.6144,-1.6144,-1.6169,-1.6172,-1.6181,-1.6204,-1.6206,-1.6199,-1.62,-1.6201,-1.6201,0,0,0,0,0,0,0,-1.6032,-1.6038,-1.6088,-1.6087,-1.6089,-1.6095,-1.6101,-1.6117,-1.6145,-1.6126,-1.6128,-1.6133,-1.617,-1.6179,-1.6182,-1.6207,-1.6199,-1.62,-1.6202,-1.6202,-1.6237,-1.6237,0,0,0,0,0,0,-1.6027,-1.6035,-1.6087,-1.609,-1.6063,-1.6096,-1.6102,-1.6114,-1.6145,-1.615,-1.6133,-1.6134,-1.6176,-1.618,-1.6184,-1.6195,-1.6201,-1.6202,-1.6203,-1.6237,-1.6237,-1.6237,0,0,0,0,0,0,-1.6025,-1.6031,-1.6085,-1.6063,-1.607,-1.6097,-1.611,-1.6114,-1.6123,-1.615,-1.6155,-1.6137,-1.6176,-1.6181,-1.6197,-1.6197,-1.6203,-1.6205,-1.6238,-1.6237,-1.6237,-1.6217,0,0,0,0,0,0,-1.6023,-1.6031,-1.6035,-1.6063,-1.6071,-1.6098,-1.611,-1.6115,-1.6126,-1.6129,-1.6155,-1.616,-1.6177,-1.6194,-1.6198,-1.6199,-1.6206,-1.6238,-1.6237,-1.6237,-1.6218,-1.6216,-1.6214,0,0,0,0,0,-1.6021,-1.6027,-1.6035,-1.6041,-1.6077,-1.6098,-1.6102,-1.6122,-1.6126,-1.613,-1.6147,-1.6159,-1.6196,-1.6195,-1.6201,-1.6202,-1.6238,-1.6238,-1.6237,-1.6218,-1.6216,-1.6214,0,0,0,0,0,0,-1.5998,-1.6031,-1.604,-1.6056,-1.6074,-1.6102,-1.6108,-1.6119,-1.6136,-1.6137,-1.616,-1.6166,-1.6179,-1.6192,-1.6191,-1.6211,-1.6218,-1.6219,-1.6202,-1.62,-1.6198,-1.6195,-1.6208,0,0,0,0,0,-1.5995,-1.6009,-1.6037,-1.6048,-1.6057,-1.6081,-1.609,-1.6104,-1.6123,-1.613,-1.6149,-1.6167,-1.6182,-1.6192,-1.6207,-1.6219,-1.6225,-1.6223,-1.6221,-1.622,-1.622,-1.6226,-1.6225,-1.6236,-1.6236,-1.6236,0,0,-1.5988,-1.6008,-1.6016,-1.6044,-1.606,-1.6073,-1.6087,-1.6101,-1.6111,-1.6133,-1.6148,-1.6162,-1.6183,-1.6197,-1.6204,-1.6208,-1.6218,-1.6219,-1.6218,-1.6219,-1.6226,-1.6225,-1.6224,-1.6236,-1.6236,-1.6236,0,0,-1.5984,-1.6001,-1.6011,-1.6026,-1.6049,-1.6065,-1.6067,-1.6093,-1.6103,-1.612,-1.6135,-1.6147,-1.6174,-1.6188,-1.6199,-1.6197,-1.6209,-1.6202,-1.6194,-1.6199,-1.6198,-1.6198,-1.6196,-1.6196,-1.6202,-1.6202,-1.6202,0,-1.5973,-1.5995,-1.6015,-1.6028,-1.604,-1.6059,-1.607,-1.6083,-1.611,-1.6117,-1.6121,-1.6154,-1.617,-1.6186,-1.6186,-1.6194,-1.6197,-1.6199,-1.6197,-1.6196,-1.6196,-1.6195,-1.6195,-1.6201,-1.6201,-1.6201,-1.6201,0,-1.598,-1.5995,-1.6,-1.6026,-1.6038,-1.6049,-1.607,-1.608,-1.6091,-1.6106,-1.6121,-1.6141,-1.616,-1.6165,-1.6177,-1.6183,-1.6185,-1.6193,-1.6201,-1.6194,-1.6193,-1.6193,-1.6199,-1.62,-1.62,-1.62,0,0,-1.5964,-1.5999,-1.6001,-1.6012,-1.6038,-1.6049,-1.6061,-1.608,-1.6087,-1.6105,-1.6114,-1.6136,-1.6143,-1.6155,-1.6168,-1.6173,-1.6169,-1.618,-1.6181,-1.6177,-1.6176,-1.617,-1.6169,-1.6177,-1.6177,-1.6177,-1.6174,0,-1.5962,-1.5985,-1.6003,-1.6019,-1.6032,-1.605,-1.606,-1.6076,-1.609,-1.6102,-1.6117,-1.6131,-1.614,-1.6147,-1.6153,-1.6169,-1.6169,-1.6169,-1.6186,-1.6186,-1.618,-1.6169,-1.6163,-1.6159,-1.6174,-1.6174,-1.6174,0,-1.5965,-1.5981,-1.5998,-1.6021,-1.6027,-1.6036,-1.6054,-1.6066,-1.6085,-1.6094,-1.6107,-1.612,-1.6132,-1.6138,-1.6155,-1.6154,-1.6162,-1.617,-1.6171,-1.6173,-1.618,-1.617,-1.6159,-1.6158,-1.6174,-1.6174,-1.6174,0,-1.595,-1.5976,-1.599,-1.5999,-1.6026,-1.6032,-1.6044,-1.6062,-1.6072,-1.6088,-1.6094,-1.6111,-1.612,-1.6132,-1.6149,-1.6152,-1.6163,-1.6171,-1.617,-1.617,-1.6172,-1.6172,-1.6161,-1.6177,-1.6177,-1.6177,-1.6177,0,-1.5947,-1.5957,-1.5983,-1.5992,-1.6002,-1.6022,-1.6031,-1.6045,-1.6061,-1.6071,-1.6087,-1.6096,-1.6118,-1.613,-1.6143,-1.6154,-1.6158,-1.6165,-1.6169,-1.6164,-1.6163,-1.6169,-1.617,-1.6177,-1.6177,-1.6177,-1.6177,0,-1.5933,-1.5952,-1.5967,-1.5992,-1.5998,-1.6004,-1.6025,-1.6033,-1.6047,-1.6059,-1.6063,-1.6085,-1.6099,-1.6117,-1.6137,-1.6146,-1.6155,-1.6161,-1.6149,-1.6151,-1.6149,-1.6149,-1.6142,-1.6141,-1.6158,-1.6158,-1.6158,0,-1.593,-1.5938,-1.5963,-1.5971,-1.5982,-1.5995,-1.6005,-1.6024,-1.6033,-1.6054,-1.6059,-1.6074,-1.6087,-1.6109,-1.6126,-1.6141,-1.6147,-1.6143,-1.6149,-1.6143,-1.6146,-1.6145,-1.6146,-1.6142,-1.6141,-1.6141,-1.6141,0,-1.5923,-1.5931,-1.5945,-1.5961,-1.5972,-1.5986,-1.6001,-1.6006,-1.6028,-1.6037,-1.6052,-1.6062,-1.6082,-1.6097,-1.6114,-1.6125,-1.6136,-1.6139,-1.6139,-1.6134,-1.6127,-1.613,-1.6145,-1.6139,-1.6139,-1.6139,-1.6139,-1.6139,-1.5914,-1.5921,-1.5939,-1.5953,-1.5966,-1.5979,-1.5987,-1.6001,-1.6014,-1.6032,-1.6042,-1.6056,-1.6072,-1.6096,-1.6107,-1.6117,-1.6122,-1.6123,-1.6123,-1.6123,-1.6121,-1.6125,-1.6121,-1.6121,-1.6121,-1.6121,-1.6121,0,-1.5907,-1.5919,-1.5932,-1.5951,-1.5962,-1.5971,-1.5987,-1.5996,-1.6008,-1.6022,-1.6035,-1.6051,-1.6064,-1.6082,-1.6097,-1.6102,-1.6107,-1.6105,-1.6105,-1.6107,-1.6117,-1.6114,-1.61,-1.61,-1.61,-1.61,-1.61,-1.61,-1.5904,-1.5916,-1.5926,-1.5944,-1.5956,-1.597,-1.5978,-1.5989,-1.6001,-1.6018,-1.6029,-1.6041,-1.6056,-1.6072,-1.6085,-1.6089,-1.6094,-1.609,-1.6096,-1.6105,-1.6106,-1.6108,-1.6106,-1.6091,-1.6091,-1.6086,-1.6085,-1.6085]}]]